Simultaneous Nadir Overpasses (SNOs) Predictions

Prediction of SNOs between GOES-15 and TERRA Satellite Orbit:

Table of predicted SNOs for the next 14.0 days since TLE Epoch: 4/16/2022
Index Date Time (GOES-15) GOES-15 Lat,Lon TERRA Lat,Lon Distance(km) Time Diff (sec)
1 04/17/2022 06:44:39 0.12,-128.35 0.70,-125.72 299.68 80
2 04/17/2022 19:03:13 -0.12,-128.39 0.39,-130.88 282.85 80
3 04/19/2022 18:53:40 -0.13,-128.37 -0.20,-127.93 50.07 80
4 04/21/2022 18:41:27 -0.14,-128.34 -0.87,-124.98 382.07 80
5 04/22/2022 07:00:09 0.14,-128.29 -0.27,-130.17 214.40 80
6 04/24/2022 06:50:35 0.15,-128.25 0.35,-127.22 117.26 80
7 04/24/2022 19:09:10 -0.15,-128.28 0.74,-132.38 465.96 80
8 04/26/2022 06:38:21 0.15,-128.22 0.98,-124.27 449.07 80
9 04/26/2022 18:56:56 -0.15,-128.25 0.11,-129.43 134.04 80
10 04/28/2022 18:47:22 -0.15,-128.21 -0.54,-126.48 197.94 80
11 04/29/2022 07:08:45 0.16,-128.17 -0.59,-131.67 398.11 80
